[[{"header":{"parameterUnit":"m.s-1","parameterCategory":1,"la1":30.2991,"la2":30.254,"lo1":-89.0895,"lo2":-89.0444,"dy":0.0017,"dx":0.0017,"nx":28,"ny":28,"refTime":"2024-12-11T09:00:00:Z","depth":0,"parameterNumber":2,"parameterNumberName":"U-component_of_WINDS"},"data":[0,0,0,0,0,0,0,0,0,0,0,0,0,0,0,0,0,0,0,0,0,0,0,0,0,0,0,0,0,0,0,0,0,0,0,0,0,0,0,0,0,0,0,0,0,0,0,0,0,0,0,0,0,0,0,0,0,0,1.515,1.5149,0,1.512,1.512,1.512,1.5078,1.5078,1.5077,1.5076,1.5046,1.5045,1.5045,0,0,0,0,0,0,0,0,0,0,0,0,0,1.517,1.517,1.515,1.5149,1.5149,1.512,1.512,1.5119,1.5078,1.5078,1.5077,1.5076,1.5046,1.5045,1.5045,0,0,0,0,0,0,0,0,0,0,0,0,0,1.5153,1.517,1.515,1.5125,1.5122,1.512,1.512,1.5119,1.5079,1.5078,1.5077,1.5076,1.5046,1.5045,1.5045,1.5065,0,0,1.5044,1.5044,0,0,0,0,0,0,0,0,1.5154,1.5152,1.5129,1.5127,1.5124,1.5102,1.5116,1.5101,1.5079,1.5095,1.5076,1.5075,1.5065,1.5063,1.506,1.5063,1.5062,1.5044,1.5044,1.5044,1.5044,0,0,0,0,0,0,0,1.5155,1.5153,1.5138,1.5129,1.5126,1.5115,1.5112,1.5113,1.5086,1.5094,1.5091,1.5088,1.5063,1.506,1.5059,1.5061,1.5044,1.5044,1.5044,1.5044,1.5079,1.508,0,0,0,0,0,0,1.516,1.5155,1.5139,1.5137,1.5137,1.5116,1.5112,1.511,1.5086,1.5082,1.5089,1.5086,1.5061,1.5059,1.5058,1.5078,1.5044,1.5044,1.5044,1.5078,1.5079,1.508,0,0,0,0,0,0,1.5161,1.5159,1.514,1.5145,1.5142,1.5117,1.5115,1.511,1.5107,1.5083,1.5078,1.509,1.506,1.5058,1.5063,1.5077,1.5044,1.5044,1.5077,1.5078,1.508,1.512,0,0,0,0,0,0,1.5161,1.516,1.5167,1.5145,1.5142,1.5146,1.5116,1.511,1.5106,1.5103,1.5083,1.5078,1.5059,1.5064,1.5063,1.5076,1.5043,1.5075,1.5077,1.5079,1.5118,1.5123,1.5128,0,0,0,0,0,1.5162,1.5179,1.5167,1.5166,1.515,1.5147,1.5145,1.5123,1.5108,1.5115,1.5099,1.5079,1.5076,1.5065,1.5063,1.5076,1.5074,1.5077,1.5079,1.5115,1.5122,1.5128,0,0,0,0,0,0,1.5202,1.5176,1.5162,1.5173,1.5163,1.514,1.5148,1.5131,1.5124,1.5121,1.5094,1.509,1.5098,1.5088,1.5076,1.5094,1.5072,1.5074,1.51,1.5106,1.5111,1.5113,1.5043,0,0,0,0,0,1.5213,1.5213,1.5189,1.5201,1.5196,1.5173,1.5171,1.5155,1.5143,1.5139,1.5124,1.5113,1.5109,1.5107,1.5103,1.5117,1.5111,1.5125,1.513,1.5134,1.5136,1.5142,1.5148,1.5088,1.5088,1.5088,0,0,1.5233,1.5219,1.522,1.5209,1.5199,1.5199,1.517,1.5172,1.5171,1.5139,1.5143,1.5131,1.5117,1.5127,1.513,1.5119,1.5152,1.5137,1.5141,1.514,1.5145,1.5151,1.5156,1.509,1.509,1.5089,0,0,1.5271,1.526,1.5268,1.5259,1.5245,1.523,1.5232,1.5212,1.5203,1.5207,1.5183,1.5182,1.5177,1.5168,1.5162,1.5198,1.5179,1.5197,1.5223,1.523,1.5234,1.5238,1.525,1.5255,1.5199,1.5199,1.52,0,1.5298,1.5298,1.5275,1.5278,1.5273,1.5245,1.5253,1.5245,1.523,1.5227,1.5215,1.5207,1.5196,1.5203,1.5211,1.5208,1.521,1.5199,1.5236,1.5239,1.5243,1.5254,1.5258,1.5202,1.5201,1.5201,1.5201,0,1.5332,1.5332,1.5341,1.5327,1.5323,1.5329,1.5307,1.5306,1.5291,1.5277,1.5281,1.5267,1.5258,1.5259,1.5244,1.5264,1.5257,1.5241,1.5218,1.5251,1.5261,1.5265,1.5205,1.5204,1.5203,1.5203,0,0,1.5393,1.5367,1.537,1.5363,1.5346,1.5346,1.535,1.5342,1.5342,1.5333,1.5336,1.5332,1.5317,1.5311,1.5295,1.5301,1.5329,1.5283,1.5282,1.5291,1.5349,1.5361,1.5366,1.5317,1.5317,1.5318,1.535,0,1.5426,1.5432,1.5412,1.5423,1.5423,1.5396,1.54,1.5389,1.5377,1.5375,1.5361,1.5358,1.5339,1.5335,1.5339,1.5324,1.534,1.5322,1.5318,1.5318,1.5321,1.5371,1.5383,1.5414,1.5354,1.5354,1.5355,0,1.5465,1.5458,1.547,1.5452,1.5451,1.5454,1.5446,1.5444,1.5432,1.5423,1.5417,1.5398,1.5401,1.538,1.5384,1.5372,1.537,1.5362,1.5363,1.5361,1.5338,1.5369,1.5423,1.5428,1.5361,1.536,1.536,0,1.5507,1.5501,1.5507,1.5502,1.5481,1.5485,1.5476,1.5463,1.546,1.5453,1.545,1.5443,1.5439,1.5435,1.5415,1.5402,1.542,1.5398,1.5412,1.5412,1.5416,1.5416,1.5469,1.5417,1.5416,1.5416,1.5416,0,1.5546,1.5554,1.5525,1.5529,1.5537,1.5514,1.5522,1.5511,1.55,1.55,1.5477,1.5478,1.5453,1.5451,1.5436,1.544,1.5439,1.5431,1.5426,1.5432,1.5433,1.5429,1.5426,1.5418,1.5417,1.5417,1.5417,0,1.5593,1.5575,1.5579,1.556,1.5555,1.5562,1.5545,1.5547,1.5533,1.5535,1.5534,1.5512,1.5509,1.5489,1.5481,1.5471,1.5481,1.5473,1.5485,1.5482,1.5496,1.5495,1.5548,1.5554,1.5499,1.55,1.55,0,1.5619,1.5624,1.5605,1.5604,1.5597,1.5595,1.5592,1.557,1.5568,1.5554,1.5558,1.5553,1.5548,1.5544,1.5528,1.5522,1.5513,1.5532,1.5511,1.5517,1.5512,1.5511,1.5511,1.5536,1.5536,1.5537,1.5537,0,1.5665,1.5656,1.5652,1.5645,1.5642,1.5636,1.5628,1.5628,1.5604,1.5602,1.5599,1.5595,1.5587,1.5583,1.5574,1.5565,1.5547,1.5544,1.5547,1.5552,1.5558,1.5554,1.5496,1.5543,1.5542,1.5542,1.5542,1.5541,1.5701,1.5704,1.5692,1.5688,1.568,1.5674,1.5675,1.5662,1.5659,1.5651,1.5638,1.5637,1.5624,1.5611,1.5604,1.5602,1.5592,1.5596,1.5596,1.5597,1.56,1.556,1.56,1.56,1.56,1.56,1.56,0,1.5745,1.5736,1.5733,1.5723,1.5721,1.5705,1.5696,1.5694,1.5693,1.5684,1.5679,1.5676,1.5671,1.5655,1.5648,1.565,1.5642,1.5649,1.5648,1.5646,1.561,1.5608,1.5656,1.5656,1.5656,1.5656,1.5656,1.5656,1.5768,1.5773,1.5762,1.5763,1.5753,1.5751,1.5747,1.5741,1.5733,1.573,1.5726,1.5716,1.5704,1.5696,1.5691,1.5687,1.5685,1.5695,1.5687,1.5654,1.5649,1.5643,1.5641,1.5695,1.5695,1.5723,1.5723,1.5724]},{"header":{"parameterUnit":"m.s-1","parameterCategory":1,"la1":30.2991,"la2":30.254,"lo1":-89.0895,"lo2":-89.0444,"dy":0.0017,"dx":0.0017,"nx":28,"ny":28,"refTime":"2024-12-11T09:00:00:Z","depth":0,"parameterNumber":3,"parameterNumberName":"V-component_of_WINDS"},"data":[0,0,0,0,0,0,0,0,0,0,0,0,0,0,0,0,0,0,0,0,0,0,0,0,0,0,0,0,0,0,0,0,0,0,0,0,0,0,0,0,0,0,0,0,0,0,0,0,0,0,0,0,0,0,0,0,0,0,-4.5895,-4.5898,0,-4.6135,-4.6137,-4.614,-4.6108,-4.6104,-4.61,-4.6097,-4.6342,-4.6351,-4.6362,0,0,0,0,0,0,0,0,0,0,0,0,0,-4.541,-4.5419,-4.5895,-4.5898,-4.5901,-4.6134,-4.6138,-4.6141,-4.6109,-4.6104,-4.6099,-4.6095,-4.6338,-4.635,-4.6362,0,0,0,0,0,0,0,0,0,0,0,0,0,-4.5632,-4.5422,-4.5894,-4.5913,-4.5917,-4.6134,-4.6138,-4.6142,-4.611,-4.6104,-4.6098,-4.6093,-4.6334,-4.6349,-4.6364,-4.6577,0,0,-4.6411,-4.6418,0,0,0,0,0,0,0,0,-4.5619,-4.565,-4.5907,-4.5912,-4.5917,-4.6086,-4.6056,-4.6288,-4.6111,-4.6037,-4.6097,-4.609,-4.6261,-4.6282,-4.634,-4.6589,-4.6599,-4.6412,-4.6422,-4.6428,-4.6432,0,0,0,0,0,0,0,-4.5604,-4.5639,-4.599,-4.5911,-4.5917,-4.591,-4.5935,-4.61,-4.6179,-4.6043,-4.6041,-4.607,-4.6263,-4.6325,-4.6345,-4.6603,-4.6412,-4.6425,-4.6435,-4.6441,-4.704,-4.7046,0,0,0,0,0,0,-4.5584,-4.5627,-4.5982,-4.5997,-4.5751,-4.5923,-4.5951,-4.6037,-4.6177,-4.6193,-4.6075,-4.6068,-4.6302,-4.6328,-4.6354,-4.6615,-4.6428,-4.6442,-4.6451,-4.7033,-4.7041,-4.7049,0,0,0,0,0,0,-4.5573,-4.5616,-4.5972,-4.5812,-4.5856,-4.5938,-4.6035,-4.6045,-4.6108,-4.6201,-4.6215,-4.6124,-4.6298,-4.6332,-4.6522,-4.6623,-4.6449,-4.6463,-4.7025,-4.7036,-4.7045,-4.7136,0,0,0,0,0,0,-4.556,-4.5612,-4.5694,-4.5814,-4.5865,-4.6137,-4.6041,-4.6054,-4.6135,-4.6127,-4.6252,-4.6267,-4.6296,-4.65,-4.6538,-4.664,-4.6475,-4.7017,-4.703,-4.7042,-4.7125,-4.7148,-4.7168,0,0,0,0,0,-4.5542,-4.571,-4.5698,-4.5741,-4.5969,-4.6143,-4.6172,-4.6204,-4.6143,-4.6226,-4.6286,-4.6263,-4.6605,-4.6519,-4.6562,-4.6671,-4.701,-4.7026,-4.7041,-4.7115,-4.7143,-4.7168,0,0,0,0,0,0,-4.56,-4.5726,-4.5715,-4.5925,-4.6024,-4.6137,-4.6243,-4.6233,-4.635,-4.6339,-4.6372,-4.64,-4.6593,-4.665,-4.6553,-4.6885,-4.6799,-4.6824,-4.6841,-4.6869,-4.689,-4.6874,-4.6488,0,0,0,0,0,-4.5637,-4.5767,-4.587,-4.6046,-4.6096,-4.6161,-4.6238,-4.6254,-4.6357,-4.6399,-4.6472,-4.6573,-4.6704,-4.6789,-4.6914,-4.7132,-4.7159,-4.7228,-4.7249,-4.7267,-4.7288,-4.741,-4.7442,-4.7098,-4.7098,-4.7098,0,0,-4.5715,-4.58,-4.588,-4.606,-4.6138,-4.6274,-4.6197,-4.6342,-4.6444,-4.642,-4.6605,-4.6663,-4.6778,-4.6983,-4.7077,-4.7037,-4.7389,-4.7286,-4.7299,-4.7312,-4.7429,-4.7461,-4.749,-4.7109,-4.7107,-4.7105,0,0,-4.5927,-4.6003,-4.616,-4.624,-4.6359,-4.6401,-4.6438,-4.6554,-4.6592,-4.6778,-4.6764,-4.6884,-4.7107,-4.7191,-4.7262,-4.7506,-4.749,-4.7545,-4.766,-4.7778,-4.7805,-4.783,-4.7919,-4.7951,-4.7566,-4.7566,-4.7566,0,-4.6009,-4.6213,-4.6241,-4.639,-4.647,-4.6455,-4.6614,-4.669,-4.6844,-4.69,-4.6852,-4.7134,-4.721,-4.7435,-4.7495,-4.7552,-4.7597,-4.7533,-4.7799,-4.7824,-4.7847,-4.7933,-4.7966,-4.7572,-4.7572,-4.7571,-4.757,0,-4.6309,-4.645,-4.6562,-4.6712,-4.6804,-4.6957,-4.7009,-4.7099,-4.7107,-4.7154,-4.7344,-4.7434,-4.7579,-4.7632,-4.764,-4.786,-4.7832,-4.7791,-4.7706,-4.7885,-4.7967,-4.7999,-4.7581,-4.7579,-4.7577,-4.7576,0,0,-4.6565,-4.6729,-4.677,-4.6839,-4.6969,-4.7079,-4.7231,-4.7373,-4.7451,-4.7557,-4.7686,-4.7876,-4.784,-4.7921,-4.7938,-4.8041,-4.8232,-4.7988,-4.7992,-4.8033,-4.8482,-4.8514,-4.8551,-4.822,-4.8227,-4.8232,-4.8473,0,-4.6792,-4.7062,-4.7093,-4.7334,-4.7466,-4.7453,-4.7586,-4.7681,-4.7729,-4.7848,-4.79,-4.8035,-4.7976,-4.8025,-4.8127,-4.8187,-4.8323,-4.817,-4.8343,-4.8349,-4.8318,-4.8593,-4.8627,-4.885,-4.8505,-4.851,-4.8514,0,-4.7093,-4.721,-4.7464,-4.7578,-4.7634,-4.7753,-4.7886,-4.7999,-4.8106,-4.8134,-4.8225,-4.8229,-4.8387,-4.8294,-4.8512,-4.8408,-4.848,-4.852,-4.8529,-4.8549,-4.8444,-4.8623,-4.8922,-4.8957,-4.8564,-4.856,-4.8556,0,-4.7258,-4.7478,-4.7659,-4.7718,-4.7854,-4.7938,-4.7999,-4.81,-4.8184,-4.8299,-4.8354,-4.8486,-4.8559,-4.8661,-4.8701,-4.8629,-4.8919,-4.8828,-4.8948,-4.8947,-4.9011,-4.9007,-4.933,-4.9053,-4.9053,-4.9052,-4.9051,0,-4.751,-4.7667,-4.7735,-4.7847,-4.8023,-4.8056,-4.8229,-4.8285,-4.8376,-4.8499,-4.8495,-4.861,-4.8654,-4.8777,-4.8809,-4.8986,-4.9018,-4.9046,-4.9053,-4.9049,-4.9046,-4.9099,-4.9085,-4.9061,-4.9059,-4.9057,-4.9056,0,-4.7725,-4.7777,-4.7974,-4.8087,-4.8119,-4.8244,-4.8341,-4.8449,-4.8495,-4.8651,-4.8689,-4.8762,-4.8907,-4.8956,-4.913,-4.9151,-4.9359,-4.9351,-4.9324,-4.9326,-4.9443,-4.9433,-4.9813,-4.9866,-4.9552,-4.9555,-4.9557,0,-4.7884,-4.8005,-4.8131,-4.8213,-4.8277,-4.841,-4.8495,-4.8532,-4.8621,-4.8753,-4.8846,-4.8989,-4.9106,-4.9337,-4.9406,-4.954,-4.9537,-4.9661,-4.9557,-4.9549,-4.9542,-4.9536,-4.9549,-4.9681,-4.9684,-4.9687,-4.9689,0,-4.8162,-4.8181,-4.8305,-4.8438,-4.854,-4.8646,-4.8749,-4.8817,-4.8869,-4.8969,-4.9117,-4.9208,-4.9387,-4.953,-4.9667,-4.9729,-4.972,-4.9721,-4.9756,-4.9754,-4.9734,-4.975,-4.938,-4.9713,-4.971,-4.9709,-4.9707,-4.9706,-4.8356,-4.8463,-4.8569,-4.8707,-4.8788,-4.8885,-4.8993,-4.9052,-4.9177,-4.9326,-4.9339,-4.95,-4.9604,-4.9787,-4.9856,-4.9982,-4.9947,-4.9998,-5.0011,-5.0024,-5.0035,-4.9712,-5.0007,-5.0006,-5.0005,-5.0005,-5.0004,0,-4.8635,-4.8703,-4.8829,-4.8974,-4.9083,-4.9062,-4.9175,-4.9268,-4.9409,-4.9508,-4.9623,-4.9794,-4.9933,-5.0012,-5.0151,-5.0237,-5.0236,-5.0273,-5.0268,-5.0283,-5.0056,-5.0013,-5.0271,-5.0271,-5.0271,-5.0271,-5.0271,-5.0271,-4.8794,-4.8975,-4.9008,-4.9229,-4.9296,-4.9453,-4.952,-4.9609,-4.9688,-4.988,-4.9995,-5.0046,-5.0137,-5.0283,-5.041,-5.0429,-5.0482,-5.0523,-5.0539,-5.0326,-5.0299,-5.0273,-5.0233,-5.0533,-5.0533,-5.0757,-5.0759,-5.076]}]]